[[{"header":{"parameterUnit":"m.s-1","parameterCategory":1,"la1":30.2991,"la2":30.254,"lo1":-89.0895,"lo2":-89.0444,"dy":0.0017,"dx":0.0017,"nx":28,"ny":28,"refTime":"2025-12-28T09:00:00:Z","depth":0,"parameterNumber":2,"parameterNumberName":"U-component_of_WINDS"},"data":[0,0,0,0,0,0,0,0,0,0,0,0,0,0,0,0,0,0,0,0,0,0,0,0,0,0,0,0,0,0,0,0,0,0,0,0,0,0,0,0,0,0,0,0,0,0,0,0,0,0,0,0,0,0,0,0,0,0,-2.0756,-2.0756,0,-2.0799,-2.0799,-2.0799,-2.08,-2.08,-2.0799,-2.0799,-2.0841,-2.0843,-2.0844,0,0,0,0,0,0,0,0,0,0,0,0,0,-2.0674,-2.0676,-2.0756,-2.0756,-2.0757,-2.0798,-2.0799,-2.08,-2.08,-2.08,-2.0799,-2.0798,-2.084,-2.0842,-2.0844,0,0,0,0,0,0,0,0,0,0,0,0,0,-2.0712,-2.0676,-2.0756,-2.0762,-2.0763,-2.0798,-2.0799,-2.08,-2.08,-2.08,-2.0799,-2.0798,-2.084,-2.0842,-2.0845,-2.0875,0,0,-2.0852,-2.0853,0,0,0,0,0,0,0,0,-2.071,-2.0715,-2.0761,-2.0762,-2.0763,-2.0793,-2.0786,-2.0825,-2.0801,-2.0786,-2.0799,-2.0798,-2.0826,-2.0829,-2.0839,-2.0877,-2.0879,-2.0852,-2.0854,-2.0855,-2.0855,0,0,0,0,0,0,0,-2.0708,-2.0714,-2.0773,-2.0761,-2.0763,-2.0763,-2.0767,-2.0793,-2.081,-2.0787,-2.0788,-2.0793,-2.0826,-2.0837,-2.084,-2.088,-2.0852,-2.0854,-2.0856,-2.0857,-2.0946,-2.0947,0,0,0,0,0,0,-2.0704,-2.0711,-2.0771,-2.0774,-2.0734,-2.0765,-2.077,-2.0784,-2.081,-2.0813,-2.0793,-2.0793,-2.0833,-2.0837,-2.0841,-2.0879,-2.0855,-2.0857,-2.0858,-2.0945,-2.0946,-2.0947,0,0,0,0,0,0,-2.0702,-2.0709,-2.077,-2.0743,-2.075,-2.0767,-2.0783,-2.0786,-2.0796,-2.0814,-2.0817,-2.0801,-2.0832,-2.0838,-2.0867,-2.088,-2.0858,-2.086,-2.0944,-2.0945,-2.0947,-2.0954,0,0,0,0,0,0,-2.07,-2.0708,-2.072,-2.0743,-2.0752,-2.0795,-2.0784,-2.0787,-2.08,-2.08,-2.0822,-2.0825,-2.0832,-2.0863,-2.087,-2.0883,-2.0862,-2.0943,-2.0945,-2.0946,-2.0952,-2.0955,-2.0958,0,0,0,0,0,-2.0697,-2.072,-2.0721,-2.0728,-2.0767,-2.0795,-2.08,-2.0809,-2.0801,-2.0813,-2.0825,-2.0824,-2.0878,-2.0866,-2.0873,-2.0888,-2.0942,-2.0944,-2.0946,-2.0951,-2.0955,-2.0958,0,0,0,0,0,0,-2.0698,-2.0723,-2.0724,-2.0756,-2.0774,-2.0795,-2.0811,-2.0812,-2.0832,-2.083,-2.0839,-2.0844,-2.0873,-2.0884,-2.087,-2.0919,-2.0909,-2.0913,-2.0911,-2.0914,-2.0917,-2.0913,-2.0864,0,0,0,0,0,-2.0702,-2.0723,-2.0744,-2.077,-2.0779,-2.0794,-2.0806,-2.0811,-2.083,-2.0837,-2.0851,-2.0868,-2.0889,-2.0903,-2.0923,-2.0955,-2.0959,-2.0968,-2.0971,-2.0973,-2.0975,-2.0992,-2.0996,-2.0954,-2.0954,-2.0954,0,0,-2.071,-2.0727,-2.074,-2.0771,-2.0785,-2.0806,-2.08,-2.0822,-2.0838,-2.084,-2.0868,-2.0879,-2.09,-2.093,-2.0944,-2.094,-2.0988,-2.0975,-2.0977,-2.0978,-2.0995,-2.0999,-2.1002,-2.0955,-2.0955,-2.0955,0,0,-2.0736,-2.0751,-2.0774,-2.0789,-2.0811,-2.0821,-2.0826,-2.0849,-2.0856,-2.0885,-2.0887,-2.0906,-2.0942,-2.0956,-2.0968,-2.1001,-2.1,-2.1007,-2.102,-2.1037,-2.104,-2.1043,-2.1054,-2.1057,-2.101,-2.101,-2.101,0,-2.0743,-2.0776,-2.0786,-2.0809,-2.0822,-2.0827,-2.085,-2.0863,-2.0891,-2.09,-2.0895,-2.094,-2.0954,-2.0988,-2.0996,-2.1006,-2.1012,-2.1004,-2.1039,-2.1042,-2.1045,-2.1055,-2.1059,-2.101,-2.101,-2.101,-2.101,0,-2.0783,-2.0806,-2.0822,-2.0849,-2.0864,-2.0887,-2.0901,-2.0915,-2.092,-2.093,-2.0959,-2.0976,-2.1,-2.1009,-2.1013,-2.1043,-2.104,-2.1037,-2.1027,-2.1049,-2.1059,-2.1063,-2.1011,-2.1011,-2.1011,-2.1011,0,0,-2.0809,-2.0842,-2.0848,-2.086,-2.0885,-2.0903,-2.0926,-2.095,-2.0962,-2.0981,-2.1001,-2.1032,-2.1029,-2.1043,-2.1049,-2.1064,-2.1088,-2.1059,-2.106,-2.1063,-2.1122,-2.1122,-2.1127,-2.1089,-2.109,-2.109,-2.1119,0,-2.0836,-2.0878,-2.0888,-2.0924,-2.0945,-2.095,-2.097,-2.0988,-2.0998,-2.1017,-2.1029,-2.105,-2.1046,-2.1054,-2.107,-2.1082,-2.11,-2.108,-2.1106,-2.1107,-2.1099,-2.1132,-2.1133,-2.116,-2.1123,-2.1124,-2.1125,0,-2.0873,-2.0894,-2.0931,-2.0954,-2.0963,-2.0982,-2.1004,-2.1023,-2.1043,-2.105,-2.1066,-2.1071,-2.1095,-2.1086,-2.1119,-2.1105,-2.1117,-2.1125,-2.1126,-2.1127,-2.1115,-2.1133,-2.1168,-2.1172,-2.1131,-2.113,-2.113,0,-2.0887,-2.0924,-2.0951,-2.0962,-2.0989,-2.1002,-2.1014,-2.1034,-2.1048,-2.1068,-2.1077,-2.11,-2.1112,-2.1129,-2.114,-2.1132,-2.1172,-2.1164,-2.1178,-2.1177,-2.1184,-2.1183,-2.122,-2.1195,-2.1194,-2.1194,-2.1194,0,-2.0915,-2.0937,-2.0958,-2.0974,-2.1,-2.1012,-2.1037,-2.1049,-2.1066,-2.1085,-2.1092,-2.1109,-2.1123,-2.1143,-2.1152,-2.1177,-2.1183,-2.1189,-2.119,-2.1187,-2.1186,-2.1193,-2.1191,-2.1195,-2.1195,-2.1195,-2.1195,0,-2.0933,-2.0948,-2.0978,-2.1002,-2.1009,-2.1026,-2.1047,-2.1063,-2.1075,-2.1099,-2.1105,-2.1123,-2.1146,-2.1159,-2.1189,-2.1195,-2.1223,-2.1225,-2.1216,-2.1216,-2.1229,-2.1227,-2.1271,-2.1277,-2.1248,-2.1248,-2.1249,0,-2.0949,-2.0967,-2.0994,-2.1007,-2.1019,-2.1041,-2.1055,-2.1068,-2.1083,-2.1108,-2.1121,-2.1145,-2.1165,-2.1202,-2.1217,-2.124,-2.1241,-2.1255,-2.1244,-2.124,-2.1239,-2.1238,-2.1239,-2.1256,-2.1256,-2.1256,-2.1256,0,-2.0976,-2.0983,-2.1004,-2.1027,-2.1045,-2.1064,-2.1083,-2.1093,-2.1109,-2.1126,-2.115,-2.1165,-2.1196,-2.1219,-2.1243,-2.1255,-2.1258,-2.126,-2.1264,-2.126,-2.1254,-2.1256,-2.1219,-2.1258,-2.1258,-2.1258,-2.1258,-2.1258,-2.0993,-2.1009,-2.103,-2.1053,-2.1069,-2.1087,-2.1103,-2.1118,-2.1138,-2.1164,-2.1171,-2.1196,-2.1217,-2.1249,-2.1262,-2.1282,-2.1279,-2.1286,-2.1287,-2.1288,-2.1288,-2.1252,-2.1287,-2.1287,-2.1287,-2.1287,-2.1286,0,-2.102,-2.1034,-2.1055,-2.1082,-2.11,-2.1103,-2.1124,-2.1139,-2.1161,-2.118,-2.12,-2.1228,-2.1251,-2.1269,-2.1292,-2.1304,-2.1306,-2.131,-2.1308,-2.1311,-2.1289,-2.1283,-2.1308,-2.1308,-2.1308,-2.1308,-2.1308,-2.1308,-2.1035,-2.1062,-2.1071,-2.1106,-2.112,-2.1145,-2.1157,-2.1173,-2.1189,-2.122,-2.1239,-2.1251,-2.1269,-2.1295,-2.1316,-2.1321,-2.1328,-2.1331,-2.1336,-2.1315,-2.1313,-2.131,-2.1304,-2.1333,-2.1333,-2.1356,-2.1356,-2.1356]},{"header":{"parameterUnit":"m.s-1","parameterCategory":1,"la1":30.2991,"la2":30.254,"lo1":-89.0895,"lo2":-89.0444,"dy":0.0017,"dx":0.0017,"nx":28,"ny":28,"refTime":"2025-12-28T09:00:00:Z","depth":0,"parameterNumber":3,"parameterNumberName":"V-component_of_WINDS"},"data":[0,0,0,0,0,0,0,0,0,0,0,0,0,0,0,0,0,0,0,0,0,0,0,0,0,0,0,0,0,0,0,0,0,0,0,0,0,0,0,0,0,0,0,0,0,0,0,0,0,0,0,0,0,0,0,0,0,0,2.2702,2.2704,0,2.2843,2.2845,2.2846,2.2917,2.2917,2.2917,2.2917,2.3056,2.3059,2.3063,0,0,0,0,0,0,0,0,0,0,0,0,0,2.249,2.2494,2.2702,2.2704,2.2705,2.2843,2.2845,2.2847,2.2917,2.2917,2.2917,2.2917,2.3055,2.3059,2.3063,0,0,0,0,0,0,0,0,0,0,0,0,0,2.2602,2.2495,2.2702,2.2757,2.2764,2.2842,2.2845,2.2847,2.2917,2.2917,2.2917,2.2917,2.3053,2.3058,2.3064,2.3096,0,0,2.3081,2.3083,0,0,0,0,0,0,0,0,2.2595,2.2609,2.2747,2.2754,2.2761,2.2863,2.2821,2.293,2.2917,2.2859,2.2917,2.2917,2.2991,2.3002,2.3028,2.3103,2.3109,2.3081,2.3084,2.3087,2.3088,0,0,0,0,0,0,0,2.2587,2.2604,2.2758,2.2749,2.2758,2.2774,2.279,2.2842,2.2922,2.2864,2.2869,2.2885,2.2995,2.3022,2.3032,2.3111,2.3081,2.3086,2.3089,2.3091,2.3222,2.3223,0,0,0,0,0,0,2.2571,2.2597,2.2753,2.2762,2.2677,2.2778,2.2796,2.283,2.2922,2.2936,2.2885,2.2888,2.3013,2.3025,2.3037,2.3083,2.3087,2.3092,2.3095,2.3222,2.3222,2.3223,0,0,0,0,0,0,2.2567,2.2585,2.2747,2.2681,2.2703,2.2782,2.2819,2.2833,2.286,2.2939,2.2953,2.2899,2.3014,2.3029,2.3082,2.3089,2.3094,2.3099,2.3222,2.3222,2.3223,2.3174,0,0,0,0,0,0,2.256,2.2582,2.2596,2.2681,2.2706,2.2791,2.282,2.2835,2.287,2.2876,2.2955,2.2968,2.3015,2.3074,2.3087,2.3096,2.3103,2.3222,2.3222,2.3222,2.3175,2.3172,2.317,0,0,0,0,0,2.2552,2.2575,2.2596,2.2615,2.2725,2.2791,2.2806,2.2861,2.287,2.2885,2.2935,2.2966,2.3086,2.3078,2.3095,2.3105,2.3221,2.3222,2.3222,2.3176,2.3173,2.317,0,0,0,0,0,0,2.2485,2.2587,2.2612,2.2662,2.2718,2.2803,2.2822,2.2855,2.2907,2.291,2.2974,2.2991,2.3039,2.3077,2.3067,2.3143,2.3157,2.316,2.3116,2.3114,2.3111,2.3101,2.3108,0,0,0,0,0,2.2477,2.2524,2.2609,2.2645,2.2673,2.2743,2.2773,2.2812,2.2871,2.2894,2.2949,2.3004,2.3055,2.3086,2.3136,2.3181,2.32,2.3197,2.3194,2.3192,2.3194,2.3223,2.3223,2.3224,2.3224,2.3224,0,0,2.2459,2.252,2.2545,2.2634,2.2681,2.2728,2.2762,2.2809,2.2844,2.29,2.2955,2.2997,2.3063,2.3113,2.3138,2.3146,2.3198,2.3192,2.319,2.3194,2.3224,2.3224,2.3223,2.3224,2.3224,2.3224,0,0,2.2451,2.2502,2.2539,2.2587,2.266,2.2707,2.2716,2.2798,2.2829,2.2885,2.293,2.2972,2.3056,2.3103,2.3137,2.3151,2.3181,2.3165,2.3151,2.3179,2.3179,2.3179,2.3186,2.3187,2.3167,2.3167,2.3167,0,2.2419,2.2493,2.2553,2.26,2.2638,2.2695,2.2733,2.2776,2.286,2.2885,2.2895,2.3005,2.3053,2.3116,2.312,2.3145,2.3158,2.3156,2.3174,2.3175,2.3176,2.3183,2.3185,2.3165,2.3165,2.3165,2.3165,0,2.2451,2.2501,2.2522,2.2606,2.2647,2.2688,2.2755,2.2789,2.2824,2.287,2.2928,2.2988,2.3053,2.3071,2.3104,2.3139,2.3143,2.3162,2.3177,2.3173,2.3181,2.3183,2.3161,2.3162,2.3163,2.3163,0,0,2.2402,2.2523,2.2529,2.257,2.2656,2.2695,2.274,2.2807,2.2835,2.2892,2.2931,2.3004,2.3024,2.3063,2.3102,2.3126,2.3136,2.3144,2.3146,2.3141,2.318,2.3166,2.3168,2.3157,2.3157,2.3158,2.3175,0,2.2407,2.2493,2.255,2.2612,2.2661,2.2717,2.2756,2.2813,2.2858,2.2904,2.2953,2.3005,2.3026,2.3051,2.3077,2.3129,2.3145,2.3128,2.3194,2.3196,2.3176,2.3171,2.3155,2.3169,2.3178,2.3179,2.3179,0,2.2424,2.2483,2.2551,2.2635,2.2657,2.2692,2.2759,2.2803,2.2869,2.29,2.2946,2.2987,2.3037,2.3048,2.3118,2.3106,2.3136,2.3166,2.3168,2.3176,2.3187,2.318,2.3174,2.3176,2.3184,2.3184,2.3183,0,2.2384,2.248,2.2534,2.2566,2.2665,2.2689,2.2731,2.2797,2.2835,2.2893,2.2918,2.298,2.3014,2.3061,2.3118,2.3121,2.3183,2.3198,2.321,2.3208,2.322,2.3219,2.3219,2.3238,2.3238,2.3238,2.3238,0,2.2383,2.2423,2.2518,2.2551,2.2598,2.2664,2.2707,2.2754,2.2813,2.2856,2.2908,2.2946,2.3019,2.3067,2.3111,2.3164,2.3178,2.3204,2.3216,2.32,2.3197,2.3221,2.3222,2.3239,2.3239,2.3238,2.3238,0,2.2346,2.2411,2.2474,2.2564,2.2588,2.2619,2.2695,2.273,2.2779,2.2832,2.2849,2.2925,2.2984,2.3046,2.3125,2.3155,2.3206,2.3221,2.3184,2.3191,2.32,2.3199,2.3217,2.3223,2.3236,2.3236,2.3236,0,2.2342,2.2374,2.2469,2.2503,2.2545,2.2598,2.2638,2.2705,2.2743,2.2823,2.2848,2.2912,2.2967,2.3059,2.312,2.3182,2.32,2.3202,2.3209,2.3193,2.3201,2.3199,2.3203,2.3199,2.3198,2.3198,2.3198,0,2.2328,2.236,2.2416,2.2484,2.2531,2.2587,2.2645,2.2669,2.2747,2.2789,2.2852,2.2894,2.2978,2.3041,2.311,2.3153,2.3188,2.3196,2.3202,2.3186,2.3164,2.3178,2.3179,2.3194,2.3195,2.3195,2.3195,2.3195,2.2309,2.2341,2.2414,2.2476,2.2527,2.2581,2.2619,2.2674,2.2729,2.2804,2.2839,2.2903,2.297,2.3068,2.311,2.316,2.317,2.3179,2.3181,2.3182,2.318,2.3156,2.3173,2.3173,2.3173,2.3173,2.3173,0,2.2299,2.235,2.2406,2.2487,2.2536,2.2568,2.2635,2.2673,2.2729,2.279,2.2845,2.2918,2.298,2.3048,2.3114,2.3141,2.316,2.3157,2.3155,2.3165,2.3166,2.3155,2.3141,2.3141,2.3141,2.3141,2.3141,2.3141,2.23,2.2358,2.2398,2.2483,2.2533,2.2598,2.2633,2.2683,2.2733,2.2814,2.2867,2.2912,2.2976,2.3048,2.3107,2.3125,2.3147,2.314,2.3163,2.3162,2.3164,2.3167,2.3157,2.3144,2.3144,2.3158,2.3158,2.3158]}]]